Погода в Канаше

Россия / Калининградская область     54°57′10″N   21°49′35″E
темп.,
°C
ветер,
м/с
пор.,
м/с
влажн.,
%
обл.,
%
осадки,
мм/ч
давл.,
гПа
погр.,
м
15 апреля, чт
чт1523:00+5ссв61167100 0.0 1022855
02:00+3ссв71490100 0.5 1022694
05:00+3ссв61394100 0.6 1021782
08:00+5св61382100 0.7 1021771
11:00+6св61371100 0.0 1021813
14:00+9св51063100 0.0 1021975
17:00+11св71056100 0.0 10201432
20:00+8ссв51060100 0.0 1021384
16 апреля, пт
пт1623:00+7ссв5961100 0.0 1020928
02:00+6ссв61071100 0.0 1019780
05:00+5ссв51170100 0.0 1019678
08:00+5ссв51181100 0.3 1018612
11:00+6св51085100 0.1 1019582
14:00+6св4991100 0.8 1019553
17:00+8св5785100 0.1 1019613
20:00+8св3889100 0.1 1020335
17 апреля, сб
сб1723:00+7св41091100 0.0 1021379
02:00+7св41094100 0.0 1020326
05:00+7св41094100 0.1 1020402
08:00+9всв4887100 0.1 1021702
11:00+9всв489498 0.2 1022471
14:00+14в5766100 0.3 10221391
17:00+13всв687566 1.2 1022912
20:00+10всв4108848 1.6 1023325
18 апреля, вс
вс1823:00+8св3891100 0.0 1023154
02:00+9всв4893100 0.0 1022292
05:00+8всв3996100 0.0 1022283
08:00+9св2697100 2.7 1021309
11:00+9в4994100 1.8 1022633
14:00+12в458191 2.1 1022819
17:00+13юв4672100 0.7 1022749
20:00+9вюв228389 0.8 102311
19 апреля, пн
пн1923:00+9в1185100 0.0 102317
02:00+9всв239399 0.0 102370
05:00+8всв3694100 0.1 1022136
08:00+9всв4790100 0.5 1022261
11:00+14в4562100 0.1 1020788
14:00+16в3446100 0.1 10191830
17:00+14в5769100 0.4 1017758
20:00+11в3886100 1.2 1017266